Home > Weather > Vejle > Past weeks

Flag for Denmark Past Weather in Vejle, Denmark — Yesterday and Last 2 Weeks

Now
66 °F

Scattered clouds.


Feels Like: 66 °F
Forecast: 61 / 77 °F
Wind: 12 mph from Northeast

Location: Billund Lufthavn

Current Time: May 29, 2016 at 7:21:39 PM

Latest Report: May 29, 2016 at 6:50 PM


Visibility: N/A

Pressure: 29.92 "Hg

Humidity: 73%

Dew Point: 57 °F

Location of VejleLocation

Past Weather in Vejle — Graph

°F

Vejle Temperature Yesterday

Maximum temperature yesterday: 66 °F (at 4:50 PM)
Minimum temperature yesterday: 48 °F (at 2:50 AM)
Average temperature yesterday: 57 °F

High & Low Weather Summary for the Past Weeks

 TemperatureHumidityPressure
High72 °F (May 22, 1:50 PM)100% (May 18, 4:20 AM)30.09 "Hg (May 18, 4:20 AM)
Low36 °F (May 18, 4:20 AM)33% (May 14, 6:50 PM)29.68 "Hg (May 22, 4:20 PM)
Average55 °F80%29.91 "Hg
* Reported May 14 6:20 PM — May 29 6:20 PM, Vejle, Weather by CustomWeather, © 2016

Note: Actual official high and low records may vary slightly from our data, if they occured in-between our weather recording intervals... More about our weather records

Advertising

Vejle Weather History for the Previous 24 Hours

Scroll right to see more
 ConditionsComfort  
Time TempWeatherWind HumidityBarometerVisibility
6:20 PM
Sun, May 29
68 °FPassing clouds.13 mph69%29.92 "HgN/A
5:50 PM68 °FPassing clouds.12 mph69%29.92 "HgN/A
5:20 PM68 °FPassing clouds.12 mph64%29.92 "HgN/A
4:50 PM68 °FPassing clouds.12 mph64%29.92 "HgN/A
4:20 PM68 °FPartly sunny.13 mph64%29.92 "HgN/A
3:50 PM70 °FPassing clouds.14 mph60%29.92 "HgN/A
3:20 PM68 °FPassing clouds.13 mph60%29.92 "HgN/A
2:50 PM70 °FPassing clouds.14 mph60%29.92 "HgN/A
2:20 PM70 °FPassing clouds.13 mph60%29.92 "HgN/A
1:50 PM70 °FScattered clouds.12 mph57%29.95 "HgN/A
1:20 PM70 °FPassing clouds.12 mph60%29.95 "HgN/A
12:50 PM68 °FScattered clouds.12 mph69%29.95 "HgN/A
12:20 PM66 °FScattered clouds.12 mph68%29.95 "HgN/A
11:50 AM66 °FPartly sunny.12 mph73%29.95 "HgN/A
11:20 AM64 °FPartly sunny.13 mph73%29.95 "HgN/A
10:50 AM64 °FPartly sunny.13 mph73%29.95 "HgN/A
10:20 AM64 °FScattered clouds.12 mph73%29.95 "HgN/A
9:50 AM63 °FPassing clouds.10 mph83%29.95 "HgN/A
9:20 AM61 °FPassing clouds.7 mph83%29.95 "HgN/A
8:50 AM61 °FScattered clouds.8 mph83%29.98 "HgN/A
8:20 AM59 °FPartly sunny.7 mph88%29.98 "HgN/A
7:50 AM57 °FScattered clouds.9 mph88%29.98 "HgN/A
7:20 AM57 °FCool.9 mph94%29.98 "HgN/A
6:50 AM55 °FCool.8 mph88%29.98 "HgN/A
6:20 AM54 °FCool.7 mph94%29.98 "HgN/A
5:50 AM52 °FCool.5 mph94%29.98 "HgN/A
5:20 AM50 °FCool.5 mph94%29.98 "HgN/A
4:50 AM50 °FCool.5 mph94%29.98 "HgN/A
4:20 AM50 °FCool.3 mph94%29.98 "HgN/A
3:50 AM50 °FCool.5 mph94%29.98 "HgN/A
3:20 AM50 °FCool.3 mph94%29.98 "HgN/A
2:50 AM52 °FCool.5 mph88%30.01 "HgN/A
2:20 AM52 °FCool.2 mph88%30.01 "HgN/A
1:50 AM50 °FPassing clouds.3 mph94%30.01 "HgN/A
1:20 AM54 °FCool.2 mph82%30.01 "HgN/A
12:50 AM54 °FCool.7 mph88%30.01 "HgN/A
12:20 AM54 °FCool.7 mph82%30.04 "HgN/A
11:50 PM
Sat, May 28
54 °FCool.7 mph82%30.04 "HgN/A
11:20 PM54 °FCool.6 mph82%30.04 "HgN/A
10:50 PM54 °FPassing clouds.7 mph88%30.04 "HgN/A
10:20 PM55 °FPassing clouds.7 mph82%30.04 "HgN/A
9:50 PM57 °FCool.9 mph77%30.04 "HgN/A
9:20 PM59 °FCool.9 mph82%30.04 "HgN/A
8:50 PM61 °FCool.9 mph72%30.01 "HgN/A
8:20 PM63 °FMild.9 mph68%30.01 "HgN/A
7:50 PM63 °FMild.8 mph64%30.01 "HgN/A
7:20 PM64 °FMild.10 mph60%30.01 "HgN/A
Weather by CustomWeather, © 2016

See weather overviewHow to use our weather pages